Hondo, TX

11:41 PM CST on December 05, 2019 (GMT -0600)
Hondo Municipal

Weather History for KHDO - October, 2019

Change the Weather History Date:

Saturday, October 12, 2019

  Actual Average Record
Temperature  
Mean Temperature 64 °F -  
Max Temperature 72 °F 80 °F 97 °F (2015)
Min Temperature 57 °F 57 °F 55 °F (2016)
Degree Days  
Heating Degree Days 2    
Growing Degree Days 14 (Base 50)    
Moisture  
Dew Point 24 °F    
Average Humidity 23    
Maximum Humidity 32    
Minimum Humidity 14    
Precipitation  
Precipitation 0.00 in - - ()
Sea Level Pressure  
Sea Level Pressure 30.15 in    
Wind  
Wind Speed 8 mph (NE)    
Max Wind Speed 15 mph    
Max Gust Speed -    
Visibility 10 miles    
Events      
Averages and records for this station are not official NWS values.
T = Trace of Precipitation, MM = Missing Value Source: NWS Daily Summary

Daily Weather History Graph

Daily Weather History Graph

Search for Another Location

Airport or City:

Astronomy

Oct. 12, 2019 Rise Set
Actual Time 7:36 AM CDT 7:09 PM CDT
Civil Twilight 7:12 AM CDT 7:33 PM CDT
Nautical Twilight 6:44 AM CDT 8:01 PM CDT
Astronomical Twilight 6:17 AM CDT 8:28 PM CDT
Moon 6:57 PM CDT (10/12) 6:26 AM CDT (10/12)
Length of Visible Light 12h 21m
Length of Day
11h 33m
Waxing Gibbous, 99% of the Moon is Illuminated
Oct 12
Waxing Gibbous
Oct 13
Full
Oct 21
Last Quarter
Oct 27
New
Nov 4
First Quarter

Hourly Weather History & Observations

Time (CDT) Temp. Dew Point Humidity Pressure Visibility Wind Dir Wind Speed Gust Speed Precip Events Conditions
12:51 AM 59.0 °F 28.9 °F 32% 30.24 in 10.0 mi NNE 6.9 mph - N/A   Overcast
1:51 AM 59.0 °F 27.0 °F 29% 30.23 in 10.0 mi NNE 6.9 mph - N/A   Overcast
2:51 AM 59.0 °F 26.1 °F 28% 30.22 in 10.0 mi NE 9.2 mph - N/A   Overcast
3:51 AM 59.0 °F 27.0 °F 29% 30.22 in 10.0 mi NE 15.0 mph - N/A   Overcast
4:51 AM 59.0 °F 26.1 °F 28% 30.22 in 10.0 mi NE 9.2 mph - N/A   Overcast
5:51 AM 57.9 °F 24.1 °F 27% 30.22 in 10.0 mi NNE 15.0 mph - N/A   Overcast
6:51 AM 57.0 °F 24.1 °F 28% 30.25 in 10.0 mi NNE 9.2 mph - N/A   Overcast
7:51 AM 57.0 °F 25.0 °F 29% 30.25 in 10.0 mi NNE 10.4 mph - N/A   Overcast
8:51 AM 57.0 °F 21.9 °F 26% 30.26 in 10.0 mi NNE 12.7 mph - N/A   Overcast
9:51 AM 57.9 °F 21.0 °F 24% 30.25 in 10.0 mi NNE 9.2 mph - N/A   Overcast
10:51 AM 61.0 °F 19.0 °F 20% 30.24 in 10.0 mi NNE 8.1 mph - N/A   Overcast
1:51 PM 66.9 °F 19.0 °F 16% 30.15 in 10.0 mi Variable 4.6 mph - N/A   Overcast
2:51 PM 69.1 °F 18.0 °F 14% 30.11 in 10.0 mi Variable 3.5 mph - N/A   Overcast
3:51 PM 70.0 °F 19.9 °F 15% 30.08 in 10.0 mi ENE 6.9 mph - N/A   Overcast
4:51 PM 70.0 °F 19.0 °F 14% 30.06 in 10.0 mi SE 4.6 mph - N/A   Overcast
5:51 PM 70.0 °F 21.0 °F 16% 30.05 in 10.0 mi Calm Calm - N/A   Overcast
6:51 PM 69.1 °F 21.9 °F 17% 30.04 in 10.0 mi ESE 3.5 mph - N/A   Overcast
7:51 PM 68.0 °F 25.0 °F 20% 30.04 in 10.0 mi Calm Calm - N/A   Overcast
8:51 PM 66.9 °F 26.1 °F 21% 30.04 in 10.0 mi East 4.6 mph - N/A   Mostly Cloudy
9:51 PM 66.9 °F 28.9 °F 24% 30.05 in 10.0 mi Calm Calm - N/A   Overcast
10:51 PM 66.0 °F 30.0 °F 26% 30.04 in 10.0 mi Calm Calm - N/A   Overcast
11:51 PM 64.9 °F 32.0 °F 29% 30.03 in 10.0 mi ESE 6.9 mph - N/A   Partly Cloudy